Tracking 18980 objects as of 21-Feb-2018
HD Live streaming from Space Station
objects crossing your sky now

CZ-2D DEB

Track CZ-2D DEB now!
10-day predictions


NORAD ID: 43097
Int'l Code: 2017-084D
Perigee: 429.3 km
Apogee: 505.1 km
Inclination: 97.3 °
Period: 93.8 minutes
Semi major axis: 6838 km
RCS: Unknown
Launch date: December 23, 2017
Source: People's Republic of China (PRC)
Launch site: Jiuquan Satellite Launch Center, China (JSC)

Note: This is SATELLITE DEBRIS
aabbcc
Your satellite tracking list
Your tracking list is empty




NASA's NSSDC Master Catalog

Two Line Element Set (TLE):
1 43097U 17084D   18051.73648320  .00005356  00000-0  15095-3 0  9993
2 43097  97.3487 129.7982 0055452 112.2956 248.4205 15.35299483  8606
Source of the keplerian elements: AFSPC